Torna al catalogo

STARLINK-3785

AttivoComunicazioniVLEO
NORAD 52375·PAYLOAD·🇺🇸 United States

Lanciato Apr 29, 2022 da Cape Canaveral Space Force Station

Loading…

Prossimi Passaggi (prossime 24 ore)

TLE

AggiornatoSource: CelesTrak SupGP

Epoca: Sep 14, 2026, 13:51 UTC

1 52375C 22045AW  26257.57756944 -.00075143  00000+0 -22207-2 0  2577
2 52375  53.1598  47.5340 0001113  88.9143 313.0004 15.34420067    11

Traccia STARLINK-3785 in tempo reale con AllMySat

Download on the App Store